GW3523 Weather Reports


Display with metric or nautical units.
time (UTC)temp
F
wind
direction
speed
MPH
gust
MPH
rain 1hr
in
rain 24hr
in
rain mn
in
humidity
%
barometer
mb
20260507020947 49 265 0.0 0.0 0.00 0.37 0.37 93 1011.3
20260507020444 49 342 0.0 1.0 0.00 0.37 0.37 93 1011.3
20260507015941 49 262 0.0 1.0 0.00 0.37 0.37 92 1011.4
20260507015440 49 265 1.0 1.0 0.00 0.37 0.37 93 1011.8
20260507014936 49 265 1.0 2.0 0.00 0.37 0.37 93 1011.4
20260507014433 49 308 1.0 2.0 0.00 0.37 0.37 93 1011.6
20260507013929 49 281 0.0 0.0 0.00 0.37 0.37 92 1011.4
20260507013426 49 246 0.0 0.0 0.00 0.37 0.37 92 1011.4
20260507012924 49 295 0.0 1.0 0.00 0.37 0.37 93 1011.4
20260507012420 49 260 0.0 0.0 0.00 0.37 0.37 93 1011.5
20260507011916 50 322 0.0 1.0 0.00 0.37 0.37 93 1011.6
20260507011413 50 278 1.0 1.0 0.00 0.37 0.37 93 1011.5
20260507010908 50 252 0.0 1.0 0.00 0.37 0.37 93 1011.3
20260507010403 50 235 1.0 1.0 0.00 0.37 0.37 93 1011.0
20260507005901 50 275 0.0 0.0 0.00 0.37 0.37 93 1011.2
20260507005357 50 264 0.0 0.0 0.00 0.37 0.37 93 1011.1
20260507004854 50 297 1.0 2.0 0.00 0.37 0.37 94 1010.9
20260507004351 50 307 1.0 2.0 0.00 0.37 0.37 94 1010.8
20260507003850 50 317 2.0 2.0 0.00 0.37 0.37 94 1010.6
20260507003344 50 258 1.0 1.0 0.00 0.37 0.37 94 1010.5
20260507002839 50 271 0.0 0.0 0.00 0.37 0.37 94 1010.6
20260507002335 50 276 0.0 0.0 0.00 0.37 0.37 95 1010.4
20260507001833 51 275 0.0 0.0 0.00 0.37 0.37 95 1010.4
20260507001329 51 267 0.0 0.0 0.00 0.37 0.37 95 1010.2
20260507000826 51 283 2.0 2.0 0.00 0.37 0.37 95 1009.9
20260507000321 51 271 0.0 0.0 0.00 0.37 0.37 95 1010.3
20260506235818 51 285 1.0 1.0 0.00 0.37 0.37 95 1009.9
20260506235315 51 283 0.0 1.0 0.00 0.37 0.37 95 1009.8
20260506234811 51 276 1.0 1.0 0.00 0.37 0.37 95 1009.8
20260506234309 52 266 0.0 1.0 0.00 0.37 0.37 96 1009.5
20260506233806 52 282 1.0 1.0 0.00 0.37 0.37 96 1009.4
20260506233256 52 308 1.0 1.0 0.00 0.37 0.37 96 1009.6
20260506232753 53 307 1.0 1.0 0.00 0.37 0.37 96 1009.5
20260506232248 53 310 1.0 1.0 0.00 0.37 0.37 96 1009.4
20260506231745 53 152 2.0 2.0 0.00 0.37 0.37 96 1009.2
20260506231244 53 250 0.0 0.0 0.00 0.37 0.37 96 1009.1
20260506230740 53 273 0.0 0.0 0.00 0.37 0.37 97 1009.1
20260506230237 53 261 0.0 0.0 0.00 0.37 0.37 97 1009.2
20260506225734 54 281 0.0 0.0 0.00 0.37 0.37 97 1009.1
20260506225231 55 301 1.0 1.0 0.00 0.37 0.37 96 1008.8
20260506224727 56 261 0.0 1.0 0.07 0.37 0.37 96 1008.4
20260506224224 56 282 1.0 2.0 0.07 0.37 0.37 94 1008.3
20260506223720 61 283 4.0 6.0 0.00 0.36 0.36 93 1008.1
20260506223216 61 259 0.0 0.0 0.00 0.36 0.36 95 1007.6
20260506222714 61 268 0.0 1.0 0.00 0.36 0.36 95 1007.6
20260506222209 61 271 0.0 0.0 0.00 0.36 0.36 95 1007.4
20260506221707 62 289 0.0 0.0 0.00 0.36 0.36 96 1007.2
20260506221205 62 258 0.0 0.0 0.00 0.36 0.36 96 1007.3
20260506220702 62 264 0.0 0.0 0.00 0.36 0.36 96 1007.3
20260506220157 62 267 0.0 0.0 0.00 0.36 0.36 96 1007.2
20260506215653 62 267 0.0 0.0 0.00 0.36 0.36 96 1007.1
20260506215149 62 273 0.0 0.0 0.00 0.36 0.36 95 1007.1
20260506214646 62 263 0.0 0.0 0.00 0.36 0.36 94 1007.0
20260506214143 62 264 0.0 0.0 0.00 0.36 0.36 94 1006.9
20260506213642 62 266 0.0 0.0 0.00 0.36 0.36 93 1006.7
20260506213138 63 266 0.0 0.0 0.00 0.36 0.36 92 1006.9
20260506212636 63 270 0.0 0.0 0.00 0.36 0.36 91 1006.9
20260506212130 63 250 0.0 0.0 0.00 0.36 0.36 90 1006.8
20260506211626 64 265 0.0 0.0 0.00 0.36 0.36 89 1006.6
20260506211123 65 272 0.0 0.0 0.00 0.36 0.36 89 1006.3
20260506210620 65 235 2.0 2.0 0.00 0.36 0.36 88 1006.3
20260506210117 65 268 0.0 0.0 0.00 0.36 0.36 88 1006.4
20260506205614 65 267 0.0 0.0 0.00 0.36 0.36 88 1006.3
20260506205108 65 264 0.0 1.0 0.00 0.36 0.36 89 1006.4
20260506204607 64 250 0.0 1.0 0.00 0.36 0.36 90 1006.4
20260506204104 65 269 0.0 0.0 0.00 0.36 0.36 91 1006.3
20260506203602 64 263 0.0 0.0 0.00 0.36 0.36 90 1006.3
20260506203058 64 272 0.0 0.0 0.00 0.36 0.36 91 1006.3
20260506202556 64 271 0.0 0.0 0.00 0.36 0.36 92 1006.3
20260506202052 64 240 1.0 2.0 0.00 0.36 0.36 92 1006.4
20260506201550 64 265 0.0 0.0 0.00 0.36 0.36 92 1006.3
20260506201046 64 220 0.0 1.0 0.00 0.36 0.36 92 1006.3
20260506200542 63 259 0.0 0.0 0.00 0.36 0.36 93 1006.3
20260506200039 63 270 0.0 0.0 0.00 0.36 0.36 94 1006.6
20260506195536 63 255 0.0 0.0 0.00 0.36 0.36 95 1006.3
20260506195032 62 238 0.0 1.0 0.00 0.36 0.36 95 1006.2
20260506194530 62 260 0.0 0.0 0.00 0.36 0.36 96 1006.7
20260506194026 62 259 0.0 0.0 0.00 0.36 0.36 96 1006.7
20260506193523 62 259 0.0 1.0 0.00 0.36 0.36 95 1006.6
20260506193021 62 168 2.0 2.0 0.00 0.36 0.36 95 1006.6
20260506192517 62 274 0.0 0.0 0.00 0.36 0.36 96 1006.6
20260506192013 62 275 1.0 1.0 0.00 0.36 0.36 96 1006.8
20260506191510 62 267 0.0 0.0 0.00 0.36 0.36 96 1006.6
20260506191006 63 265 0.0 0.0 0.00 0.36 0.36 96 1006.6
20260506190504 62 266 2.0 3.0 0.00 0.36 0.36 95 1006.7
20260506190000 63 229 2.0 2.0 0.00 0.36 0.36 96 1006.6
20260506185458 62 269 0.0 0.0 0.00 0.36 0.36 96 1006.7
20260506184954 62 265 0.0 0.0 0.00 0.36 0.36 96 1006.9
20260506184451 63 295 0.0 0.0 0.00 0.36 0.36 97 1006.8
20260506183948 63 262 0.0 0.0 0.00 0.36 0.36 98 1006.8
20260506183444 62 269 0.0 1.0 0.00 0.36 0.36 98 1006.8
20260506182941 62 257 1.0 1.0 0.00 0.36 0.36 99 1006.8
20260506182438 61 258 2.0 2.0 0.00 0.36 0.36 99 1007.0
20260506181936 61 256 0.0 1.0 0.00 0.36 0.36 99 1007.1
20260506181434 61 241 0.0 1.0 0.00 0.36 0.36 99 1007.1
20260506180930 60 209 1.0 2.0 0.00 0.36 0.36 99 1007.0
20260506180426 60 280 1.0 1.0 0.00 0.36 0.36 99 1006.9
20260506175923 60 307 1.0 1.0 0.00 0.36 0.36 99 1007.1
20260506175420 60 271 0.0 1.0 0.05 0.36 0.36 99 1007.1
20260506174917 60 272 0.0 0.0 0.05 0.36 0.36 99 1007.2
20260506174414 60 253 0.0 0.0 0.00 0.35 0.35 99 1007.1
20260506173911 60 265 0.0 0.0 0.07 0.35 0.35 99 1007.1
20260506173408 60 270 0.0 0.0 0.07 0.35 0.35 99 1007.1
20260506172905 60 271 0.0 0.0 0.07 0.34 0.34 99 1007.0
20260506172402 59 257 0.0 0.0 0.12 0.34 0.34 99 1007.0
20260506171859 59 201 0.0 0.0 0.05 0.33 0.33 99 1006.9
20260506171356 59 258 1.0 1.0 0.07 0.32 0.32 99 1007.2
20260506170854 59 239 0.0 0.0 0.07 0.32 0.32 99 1007.4
20260506170349 59 268 0.0 0.0 0.00 0.31 0.31 99 1007.4
20260506165843 59 260 0.0 0.0 0.00 0.31 0.31 99 1007.4
20260506165341 59 274 0.0 0.0 0.05 0.31 0.31 98 1007.2
20260506164837 59 268 0.0 0.0 0.05 0.31 0.31 98 1007.1
20260506164334 59 273 0.0 0.0 0.00 0.30 0.30 98 1006.9
20260506163832 59 254 0.0 0.0 0.00 0.30 0.30 98 1007.2
20260506163326 59 250 1.0 2.0 0.00 0.30 0.30 98 1007.1
20260506162821 59 348 1.0 2.0 0.07 0.30 0.30 97 1007.4
20260506162319 59 188 2.0 2.0 0.07 0.30 0.30 97 1007.3
20260506161811 59 255 0.0 0.0 0.00 0.29 0.29 97 1007.3
20260506161308 60 63 2.0 3.0 0.00 0.29 0.29 97 1007.0
20260506160805 60 263 2.0 4.0 0.00 0.29 0.29 97 1007.2
20260506160301 59 185 1.0 2.0 0.00 0.29 0.29 97 1007.1
20260506155801 59 166 5.0 6.0 0.00 0.29 0.29 97 1007.3
20260506155257 59 267 1.0 1.0 0.05 0.29 0.29 97 1007.3
20260506153404 59 182 4.0 4.0 0.07 0.28 0.28 97 1007.4
20260506152901 59 251 0.0 0.0 0.05 0.27 0.27 98 1007.6
20260506152358 59 192 2.0 3.0 0.12 0.27 0.27 98 1007.4
20260506151857 59 216 0.0 0.0 0.12 0.26 0.26 98 1007.5
20260506151353 59 267 0.0 0.0 0.12 0.25 0.25 98 1007.5
20260506150851 59 255 0.0 0.0 0.19 0.24 0.24 98 1007.5
20260506150347 59 249 0.0 0.0 0.19 0.23 0.23 97 1007.8
20260506145844 59 262 0.0 0.0 0.07 0.21 0.21 97 1007.8
20260506145340 59 197 1.0 1.0 0.05 0.20 0.20 97 1007.4
20260506144838 59 289 2.0 3.0 0.12 0.20 0.20 96 1007.6
20260506144334 59 172 4.0 4.0 0.12 0.19 0.19 96 1007.3
20260506143833 59 183 1.0 2.0 0.05 0.18 0.18 97 1007.6
20260506143329 59 203 1.0 2.0 0.07 0.17 0.17 97 1007.5
20260506142828 59 261 0.0 0.0 0.07 0.17 0.17 97 1007.3
20260506142325 59 264 0.0 0.0 0.05 0.16 0.16 97 1007.4
20260506141824 59 263 1.0 1.0 0.05 0.16 0.16 96 1007.4
20260506141321 59 246 2.0 2.0 0.07 0.15 0.15 96 1007.3
20260506140819 59 267 0.0 0.0 0.12 0.15 0.15 95 1007.4
20260506140316 59 182 1.0 2.0 0.12 0.14 0.14 95 1007.6
20260506135813 59 159 4.0 4.0 0.07 0.13 0.13 95 1007.6
20260506135309 59 192 4.0 4.0 0.00 0.12 0.12 96 1007.5
20260506134806 59 224 2.0 2.0 0.05 0.12 0.12 96 1007.8
20260506134302 59 141 1.0 2.0 0.05 0.12 0.12 95 1007.7
20260506133759 58 263 2.0 4.0 0.07 0.11 0.11 95 1007.7
20260506133256 59 195 0.0 0.0 0.12 0.11 0.11 95 1007.8
20260506132753 59 264 2.0 2.0 0.12 0.10 0.10 95 1008.1
20260506132250 59 263 1.0 1.0 0.12 0.10 0.10 94 1008.0
20260506131748 59 164 3.0 4.0 0.14 0.09 0.09 94 1008.1
20260506131243 59 205 1.0 2.0 0.12 0.08 0.08 94 1008.1
20260506130740 59 241 0.0 1.0 0.12 0.07 0.07 94 1008.3
20260506130237 59 233 1.0 1.0 0.07 0.06 0.06 94 1008.2
20260506125736 59 269 0.0 1.0 0.05 0.05 0.05 94 1008.3
20260506125233 59 271 0.0 0.0 0.12 0.05 0.05 93 1008.3
20260506124731 59 287 0.0 0.0 0.07 0.04 0.04 93 1008.5
20260506124228 59 219 0.0 0.0 0.05 0.03 0.03 93 1008.3
20260506123726 59 274 0.0 0.0 0.12 0.03 0.03 91 1008.5
20260506123224 60 299 0.0 0.0 0.12 0.02 0.02 90 1008.2
20260506122721 60 277 0.0 0.0 0.05 0.01 0.01 87 1008.2
20260506122218 61 264 0.0 0.0 0.00 0.00 0.00 85 1008.1
20260506121716 61 289 1.0 1.0 0.00 0.00 0.00 84 1008.0
20260506121213 62 257 0.0 1.0 0.00 0.00 0.00 81 1007.8
20260506120710 62 213 2.0 3.0 0.00 0.00 0.00 80 1008.1
20260506120208 62 238 0.0 1.0 0.00 0.00 0.00 78 1008.0
20260506115706 62 246 0.0 0.0 0.00 0.00 0.00 79 1008.0
20260506115204 62 245 0.0 1.0 0.00 0.00 0.00 77 1007.7
20260506114701 63 169 3.0 3.0 0.00 0.00 0.00 76 1007.7
20260506114158 63 233 1.0 1.0 0.00 0.00 0.00 76 1007.7
20260506113657 63 22 1.0 2.0 0.00 0.00 0.00 73 1007.9
20260506113154 63 158 4.0 4.0 0.00 0.00 0.00 72 1007.7
20260506112650 64 160 3.0 4.0 0.00 0.00 0.00 71 1007.7
20260506112148 64 243 1.0 2.0 0.00 0.00 0.00 70 1007.6
20260506111645 64 156 3.0 3.0 0.00 0.00 0.00 70 1007.6
20260506111143 64 195 0.0 1.0 0.00 0.00 0.00 69 1007.5
20260506110640 64 133 5.0 8.0 0.00 0.00 0.00 68 1007.6
20260506110137 64 212 2.0 3.0 0.00 0.00 0.00 69 1007.7
20260506105633 64 262 0.0 0.0 0.00 0.00 0.00 68 1007.2
20260506105130 64 271 0.0 0.0 0.00 0.00 0.00 68 1007.4
20260506104629 64 164 4.0 4.0 0.00 0.00 0.00 67 1007.3
20260506104126 64 153 3.0 3.0 0.00 0.00 0.00 68 1007.4
20260506103623 64 250 1.0 2.0 0.00 0.00 0.00 68 1007.3
20260506103120 64 162 3.0 3.0 0.00 0.00 0.00 67 1007.2
20260506102618 64 232 1.0 1.0 0.00 0.00 0.00 66 1007.0
20260506102115 65 277 0.0 1.0 0.00 0.00 0.00 65 1007.1
20260506101612 65 262 1.0 1.0 0.00 0.00 0.00 65 1007.0
20260506101109 65 159 5.0 7.0 0.00 0.00 0.00 64 1007.0
20260506100607 65 279 2.0 3.0 0.00 0.00 0.00 63 1007.2
20260506100105 65 273 5.0 9.0 0.00 0.00 0.00 63 1007.1
20260506095604 65 312 1.0 2.0 0.00 0.00 0.00 62 1006.8
20260506095100 65 231 2.0 2.0 0.00 0.00 0.00 61 1006.9
20260506094557 65 267 0.0 0.0 0.00 0.00 0.00 62 1007.0
20260506094055 66 251 0.0 1.0 0.00 0.00 0.00 62 1006.9
20260506093553 65 181 2.0 2.0 0.00 0.00 0.00 62 1007.1
20260506093051 65 257 0.0 0.0 0.00 0.00 0.00 62 1007.1
20260506092548 66 244 0.0 1.0 0.00 0.00 0.00 60 1007.3
20260506092045 66 164 4.0 4.0 0.00 0.00 0.00 59 1007.3
20260506091543 66 175 3.0 3.0 0.00 0.00 0.00 60 1007.3
20260506091040 65 265 1.0 1.0 0.00 0.00 0.00 60 1007.4
20260506090538 65 189 1.0 2.0 0.00 0.00 0.00 60 1007.4
20260506090034 65 254 1.0 2.0 0.00 0.00 0.00 59 1007.2
20260506085531 66 187 2.0 2.0 0.00 0.00 0.00 58 1007.2
20260506085027 66 168 4.0 6.0 0.00 0.00 0.00 57 1007.3
20260506084525 66 244 2.0 3.0 0.00 0.00 0.00 58 1007.4
20260506084020 66 174 5.0 6.0 0.00 0.00 0.00 56 1007.3
20260506083518 66 196 4.0 6.0 0.00 0.00 0.00 56 1007.5
20260506083015 66 144 6.0 8.0 0.00 0.00 0.00 55 1007.3
20260506082512 66 253 1.0 2.0 0.00 0.00 0.00 57 1007.3
20260506082007 66 194 3.0 4.0 0.00 0.00 0.00 54 1007.4
20260506081506 66 253 1.0 2.0 0.00 0.00 0.00 55 1007.3
20260506081003 67 173 3.0 4.0 0.00 0.00 0.00 54 1007.3
20260506080500 67 172 4.0 4.0 0.00 0.00 0.00 54 1007.4
20260506073444 67 183 6.0 8.0 0.00 0.00 0.00 52 1007.3
20260506072941 67 260 0.0 0.0 0.00 0.00 0.00 53 1007.4
20260506072438 67 182 4.0 4.0 0.00 0.00 0.00 52 1007.2
20260506071936 67 162 5.0 7.0 0.00 0.00 0.00 51 1007.6
20260506071433 67 215 2.0 2.0 0.00 0.00 0.00 52 1007.6
20260506070930 67 224 1.0 2.0 0.00 0.00 0.00 51 1007.7
20260506070427 67 267 3.0 6.0 0.00 0.00 0.00 50 1007.9
20260506062405 67 233 0.0 0.0 0.00 0.00 0.00 50 1008.1
20260506061900 67 248 1.0 1.0 0.00 0.00 0.00 50 1008.2
20260506061357 68 265 0.0 1.0 0.00 0.00 0.00 49 1008.2
20260506060855 68 179 3.0 3.0 0.00 0.00 0.00 48 1008.3
20260506060353 68 253 2.0 3.0 0.00 0.00 0.00 48 1008.2
20260506051325 67 262 0.0 0.0 0.00 0.00 0.00 48 1008.8
20260506050823 66 258 0.0 0.0 0.00 0.00 0.00 48 1008.7
20260506050320 66 283 0.0 0.0 0.00 0.00 0.00 49 1008.9
20260506044810 67 238 0.0 0.0 0.00 0.00 0.00 48 1008.9
20260506044308 67 269 0.0 0.0 0.00 0.00 0.00 47 1008.6
20260506043804 67 239 1.0 1.0 0.00 0.00 0.00 46 1008.6
20260506043302 67 155 3.0 3.0 0.00 0.00 0.00 46 1008.7
20260506042801 68 159 4.0 4.0 0.00 0.00 0.00 45 1008.8
20260506042259 67 276 1.0 2.0 0.00 0.00 0.00 46 1008.7
20260506041757 67 223 1.0 2.0 0.00 0.00 0.00 46 1008.8
20260506041254 68 200 4.0 6.0 0.00 0.00 0.00 45 1008.8
20260506040751 68 259 0.0 0.0 0.00 0.00 0.00 45 1008.9
20260506040248 67 212 2.0 3.0 0.00 0.00 0.00 44 1008.9
20260506035745 67 261 0.0 0.0 0.00 0.00 0.00 48 1008.8
20260506035242 66 250 1.0 2.0 0.00 0.00 0.00 46 1008.9
20260506034738 66 253 0.0 0.0 0.00 0.00 0.00 49 1009.1
20260506034235 65 271 0.0 0.0 0.00 0.00 0.00 52 1009.0
20260506033727 65 267 0.0 0.0 0.00 0.00 0.00 50 1008.8
20260506033224 66 275 0.0 0.0 0.00 0.00 0.00 50 1008.8
20260506032721 67 267 0.0 0.0 0.00 0.00 0.00 48 1009.0
20260506032218 66 258 0.0 0.0 0.00 0.00 0.00 50 1008.8
20260506031715 65 290 0.0 0.0 0.00 0.00 0.00 50 1008.9
20260506031212 65 271 0.0 0.0 0.00 0.00 0.00 51 1008.8
20260506030710 66 269 0.0 0.0 0.00 0.00 0.00 50 1008.9
20260506030207 66 267 0.0 0.0 0.00 0.00 0.00 50 1008.9
20260506025658 67 269 0.0 0.0 0.00 0.00 0.00 48 1008.9
20260506025154 68 270 0.0 0.0 0.00 0.00 0.00 47 1008.7
20260506024652 68 229 2.0 3.0 0.00 0.00 0.00 46 1008.7
20260506024148 69 274 0.0 0.0 0.00 0.00 0.00 45 1008.9
20260506023644 65 268 0.0 0.0 0.00 0.00 0.00 51 1009.0
20260506023141 65 265 0.0 0.0 0.00 0.00 0.00 52 1008.8
20260506022639 65 251 0.0 0.0 0.00 0.00 0.00 53 1009.0
20260506022136 65 269 0.0 0.0 0.00 0.00 0.00 52 1009.1
20260506021634 66 269 0.0 0.0 0.00 0.00 0.00 50 1009.0